Le nostre stazioni meteo in Italia

Pubblicità
Il mio iltempo24.it
Milano/Malpensa, Italia (16066): Temperatura & dewpoint: 18.07.2019 07:00:00 - 24.07.2019 07:00:00 (CEST)Milano/Malpensa, Italia (16066): velocità del vento: 18.07.2019 07:00:00 - 24.07.2019 07:00:00 (CEST)Milano/Malpensa, Italia (16066): direzione del vento: 18.07.2019 07:00:00 - 24.07.2019 07:00:00 (CEST)Milano/Malpensa, Italia (16066): reduced air pressure: 18.07.2019 07:00:00 - 24.07.2019 07:00:00 (CEST)Milano/Malpensa, Italia (16066): visibility: 18.07.2019 07:00:00 - 24.07.2019 07:00:00 (CEST)Milano/Malpensa, Italia (16066): precipitazioni: 18.07.2019 07:00:00 - 24.07.2019 07:00:00 (CEST)
Data & Tempo tt [°C] td [°C] ff [km/h] ff [kn] dd ppp [hPa] vv [km] rr [mm]
24.07.2019 07:00:00 22,0 21,0 8 4 NNE - 10 -
24.07.2019 06:00:00 22,0 21,0 9 5 N - 10 -
24.07.2019 05:00:00 22,6 20,5 9 5 N 1017,9 10 0,0
24.07.2019 04:00:00 23,0 21,0 9 5 NNE - 10 -
24.07.2019 03:00:00 23,0 20,0 5 3 NNE - 10 -
24.07.2019 02:00:00 22,9 20,9 8 4 NNE 1018,6 10 -
24.07.2019 01:00:00 23,0 21,0 5 3 NE - 10 -
24.07.2019 00:00:00 24,0 21,0 5 3 NNE - 10 -
23.07.2019 23:00:00 25,1 21,1 4 2 - 1018,4 10 0,0
23.07.2019 22:00:00 27,0 21,0 4 2 SE - 10 -
23.07.2019 21:00:00 30,0 21,0 11 6 OSO - 10 -
23.07.2019 20:00:00 31,7 19,0 13 7 OSO 1018,0 10 -
23.07.2019 19:00:00 33,0 18,0 13 7 OSO - 10 -
23.07.2019 18:00:00 33,0 20,0 11 6 O - 10 -
23.07.2019 17:00:00 33,3 20,1 15 8 O 1018,6 10 0,0
23.07.2019 16:00:00 34,0 20,0 18 10 OSO - 10 -
23.07.2019 15:00:00 33,0 20,0 16 9 SO - 10 -
23.07.2019 14:00:00 33,0 19,5 13 7 O 1020,0 10 -
23.07.2019 13:00:00 32,0 20,0 8 4 ONO - 10 -
23.07.2019 12:00:00 30,0 20,0 9 5 O - 10 -
23.07.2019 11:00:00 30,6 20,5 5 3 - 1021,0 10 0,0
23.07.2019 10:00:00 29,0 21,0 4 2 - - 10 -
23.07.2019 09:00:00 27,0 22,0 8 4 NNE - 10 -
23.07.2019 08:00:00 24,7 21,0 8 4 NNE 1021,1 10 -
23.07.2019 07:00:00 22,0 20,0 9 5 N - 10 -
23.07.2019 06:00:00 21,0 20,0 11 6 N - 10 -
23.07.2019 05:00:00 21,3 19,5 11 6 NNE 1020,9 10 0,0
23.07.2019 04:00:00 22,0 19,0 9 5 N - 10 -
23.07.2019 03:00:00 21,0 20,0 5 3 NNE - 10 -
23.07.2019 02:00:00 22,1 19,8 9 5 NNE 1021,4 10 -
23.07.2019 01:00:00 23,0 20,0 5 3 NNE - 10 -
23.07.2019 00:00:00 24,0 20,0 4 2 - - 10 -
22.07.2019 23:00:00 25,2 19,4 5 3 NNE 1021,0 10 0,0
22.07.2019 22:00:00 28,0 19,0 4 2 - - 10 -
22.07.2019 21:00:00 30,0 18,0 8 4 SSO - 10 -
22.07.2019 20:00:00 31,0 18,0 8 4 OSO 1020,5 10 -
22.07.2019 19:00:00 31,0 19,0 11 6 SO - 10 -
22.07.2019 18:00:00 32,0 19,0 13 7 OSO - 10 -
22.07.2019 17:00:00 31,7 20,4 13 7 O 1021,2 10 0,0
22.07.2019 16:00:00 32,0 20,0 15 8 SO - 10 -
22.07.2019 15:00:00 32,0 21,0 13 7 - - 10 -
22.07.2019 14:00:00 31,3 20,3 8 4 SSO 1022,6 10 -
22.07.2019 13:00:00 31,0 21,0 11 6 SO - 10 -
22.07.2019 12:00:00 31,0 21,0 5 3 - - 10 -
22.07.2019 11:00:00 29,2 20,8 4 2 - 1023,5 10 0,0
22.07.2019 10:00:00 27,0 21,0 5 3 - - 10 -
22.07.2019 09:00:00 25,0 20,0 2 1 - - 10 -
22.07.2019 08:00:00 23,1 20,1 2 1 - 1023,2 10 -
22.07.2019 07:00:00 21,0 19,0 2 1 - - 10 -
22.07.2019 06:00:00 20,0 18,0 4 2 - - 10 -
22.07.2019 05:00:00 20,1 18,3 11 6 NNE 1022,1 10 0,0
22.07.2019 04:00:00 20,0 18,0 8 4 N - 10 -
22.07.2019 03:00:00 21,0 18,0 4 2 - - 10 -
22.07.2019 02:00:00 21,1 18,2 5 3 E 1022,3 10 -
22.07.2019 01:00:00 23,0 18,0 2 1 - - 10 -
22.07.2019 00:00:00 24,0 18,0 9 5 SSO - 10 -
21.07.2019 23:00:00 25,6 19,7 15 8 SSO 1021,1 10 0,0
21.07.2019 22:00:00 28,0 20,0 8 4 SSO - 10 -
21.07.2019 21:00:00 29,0 19,0 11 6 OSO - 10 -
21.07.2019 20:00:00 29,9 19,8 9 5 SO 1018,9 10 -
21.07.2019 19:00:00 31,0 18,0 16 9 SO - 10 -
21.07.2019 18:00:00 31,0 18,0 18 10 OSO - 10 -
21.07.2019 17:00:00 31,2 19,6 13 7 SO 1018,9 10 0,0
21.07.2019 16:00:00 31,0 19,0 13 7 SO - 10 -
21.07.2019 15:00:00 31,0 18,0 13 7 OSO - 10 -
21.07.2019 14:00:00 30,8 17,7 11 6 - 1019,8 10 -
21.07.2019 13:00:00 30,0 17,0 5 3 - - 10 -
21.07.2019 12:00:00 29,0 18,0 5 3 - - 10 -
21.07.2019 11:00:00 28,8 17,4 5 3 - 1020,5 10 0,0
21.07.2019 10:00:00 27,0 18,0 8 4 E - 10 -
21.07.2019 09:00:00 25,0 19,0 5 3 NE - 10 -
21.07.2019 08:00:00 22,4 19,3 5 3 N 1020,2 10 -
21.07.2019 07:00:00 21,0 19,0 11 6 N - 10 -
21.07.2019 06:00:00 20,0 19,0 11 6 N - 10 -
21.07.2019 05:00:00 20,1 18,2 9 5 N 1019,8 10 0,0
21.07.2019 04:00:00 20,0 18,0 8 4 NE - 10 -
21.07.2019 03:00:00 21,0 19,0 4 2 NNE - 10 -
21.07.2019 02:00:00 21,5 19,0 5 3 NE 1019,7 10 -
21.07.2019 01:00:00 23,0 19,0 2 1 - - 10 -
21.07.2019 00:00:00 24,0 19,0 9 5 O - 10 -
20.07.2019 23:00:00 23,0 19,2 9 5 N 1019,0 10 0,0
20.07.2019 22:00:00 25,0 16,0 4 2 - - 10 -
20.07.2019 21:00:00 29,0 12,0 8 4 OSO - 10 -
20.07.2019 20:00:00 29,3 12,3 8 4 O 1018,1 10 -
20.07.2019 19:00:00 30,0 15,0 9 5 SO - 10 -
20.07.2019 18:00:00 31,0 12,0 8 4 - - 10 -
20.07.2019 17:00:00 30,9 14,6 11 6 SSO 1018,3 10 0,0
20.07.2019 16:00:00 30,0 17,0 11 6 SO - 10 -
20.07.2019 15:00:00 30,0 18,0 11 6 S - 10 -
20.07.2019 14:00:00 29,2 18,5 8 4 - 1018,9 10 -
20.07.2019 13:00:00 29,0 18,0 4 2 - - 10 -
20.07.2019 12:00:00 28,0 18,0 8 4 ESE - 10 -
20.07.2019 11:00:00 27,6 18,1 9 5 ESE 1019,2 10 0,0
20.07.2019 10:00:00 26,0 18,0 9 5 E - 10 -
20.07.2019 09:00:00 25,0 18,0 5 3 E - 10 -
20.07.2019 08:00:00 21,8 18,2 5 3 N 1018,4 10 -
20.07.2019 07:00:00 19,0 17,0 8 4 NNE - 10 -
20.07.2019 06:00:00 18,0 17,0 9 5 N - 10 -
20.07.2019 05:00:00 18,5 16,8 9 5 NNE 1017,7 10 0,0
20.07.2019 04:00:00 19,0 17,0 8 4 NE - 10 -
20.07.2019 03:00:00 19,0 17,0 11 6 N - 10 -
20.07.2019 02:00:00 19,7 17,2 8 4 NE 1017,6 10 -
20.07.2019 01:00:00 21,0 17,0 8 4 NNE - 10 -
20.07.2019 00:00:00 21,0 17,0 5 3 ENE - 10 -
19.07.2019 23:00:00 20,8 17,0 9 5 NNE 1016,7 10 0,0
19.07.2019 22:00:00 27,0 16,0 8 4 O - 10 -
19.07.2019 21:00:00 27,0 16,0 9 5 OSO - 10 -
19.07.2019 20:00:00 28,0 15,5 11 6 OSO 1015,6 10 -
19.07.2019 19:00:00 29,0 17,0 13 7 OSO - 10 -
19.07.2019 18:00:00 29,0 17,0 11 6 SO - 10 -
19.07.2019 17:00:00 29,2 17,1 13 7 - 1015,9 10 0,0
19.07.2019 16:00:00 29,0 17,0 15 8 OSO - 10 -
19.07.2019 15:00:00 29,0 16,0 9 5 OSO - 10 -
19.07.2019 14:00:00 28,4 16,3 8 4 NO 1016,8 10 -
19.07.2019 13:00:00 28,0 17,0 8 4 SSO - 10 -
19.07.2019 12:00:00 27,0 18,0 5 3 - - 10 -
19.07.2019 11:00:00 25,9 17,8 5 3 NE 1017,6 10 0,0
19.07.2019 10:00:00 24,0 18,0 8 4 ENE - 10 -
19.07.2019 09:00:00 23,0 17,0 5 3 ENE - 10 -
19.07.2019 08:00:00 21,1 17,5 5 3 N 1017,0 10 -
19.07.2019 07:00:00 18,0 16,0 5 3 NNE - 10 -
19.07.2019 06:00:00 18,0 16,0 8 4 N - 10 -
19.07.2019 05:00:00 17,9 15,8 8 4 N 1016,0 10 0,0
19.07.2019 04:00:00 18,0 16,0 8 4 NNE - 10 -
19.07.2019 03:00:00 18,0 16,0 8 4 NNE - 10 -
19.07.2019 02:00:00 19,0 16,0 11 6 N 1015,2 10 -
19.07.2019 01:00:00 20,0 16,0 8 4 N - 10 -
19.07.2019 00:00:00 21,0 16,0 8 4 N - 10 -
18.07.2019 23:00:00 20,3 16,0 5 3 ENE 1014,5 10 0,0
18.07.2019 22:00:00 22,0 16,0 11 6 E - 10 -
18.07.2019 21:00:00 23,0 18,0 8 4 E - 10 -
18.07.2019 20:00:00 23,6 17,3 5 3 SE 1013,0 10 -
18.07.2019 19:00:00 25,0 16,0 22 12 ESE - 10 -
18.07.2019 18:00:00 28,0 16,0 11 6 S - 10 -
18.07.2019 17:00:00 28,7 16,4 13 7 SSO 1012,2 10 0,0
18.07.2019 16:00:00 29,0 16,0 13 7 SO - 10 -
18.07.2019 15:00:00 28,0 16,0 5 3 - - 10 -
18.07.2019 14:00:00 27,9 15,3 8 4 - 1013,2 10 -
18.07.2019 13:00:00 - - - - - - - -
18.07.2019 12:00:00 27,0 14,0 11 6 ESE - 10 -
18.07.2019 11:00:00 25,4 14,4 9 5 SE 1013,5 10 0,0
18.07.2019 10:00:00 23,0 15,0 15 8 E - 10 -
18.07.2019 09:00:00 22,0 16,0 4 2 - - 10 -
18.07.2019 08:00:00 20,6 15,9 4 2 N 1012,5 10 -
18.07.2019 07:00:00 18,0 15,0 8 4 NNE - 10 -

tt = Temperatura
td = dewpoint
ff = velocità del vento
dd = direzione del vento
ppp = reduced air pressure
vv = visibility
rr = precipitazioni

Stazioni seguenti

WeatherPro
AMSI
MeteoEarth